Location: Unspecified
(0.0000°N, 0.0000°E)
Time: 20:09:34
(UTC+00:00)

Hubble Space Telescope - Pass Details

Date: 22 January 2018
Orbit: 537 x 541 km, 28.5° (Epoch: 17 January)

Event Time Altitude Azimuth Distance (km) Brightness Sun altitude
Exits shadow 05:39:48 - 256° (WSW) 2,231 3.4 -7.5°
Reaches altitude 10° 05:41:37 10° 238° (WSW) 1,789 3.1 -7.0°
Maximum altitude 05:43:43 14° 207° (SSW) 1,572 3.1 -6.5°
Drops below altitude 10° 05:45:50 10° 177° (S) 1,791 3.8 -6.0°
Sets 05:49:07 0° 150° (SSE) 2,683 5.2 -5.3°
